Regional Weather Roundup
Issued by NWS

Home | Current Version | Previous Version | Text Only | Print | Product List | Glossary On
Versions: 1 2 3 4 5 6 7 8 9 10 11 12 13 14 15 16 17 18 19 20 21 22 23 24 25 26 27 28 29 30 31 32 33 34 35 36 37 38 39 40 41 42 43 44 45 46 47 48 49 50
000
ASUS43 KDTX 231310
RWRMI
MICHIGAN HOURLY REGIONAL WEATHER ROUNDUP
NATIONAL WEATHER SERVICE DETROIT/PONTIAC MI
900 AM EDT SAT AUG 23 2014

NOTE: "FAIR" INDICATES FEW OR NO CLOUDS BELOW 12,000 FEET WITH NO
SIGNIFICANT WEATHER AND/OR OBSTRUCTION TO VISIBILITY.

MIZ047>049-052>055-059>063-066>070-074>076-081>083-231400-
SOUTHEAST LOWER MICHIGAN

CITY           SKY/WX    TMP DP  RH WIND       PRES   REMARKS
ADRIAN         CLOUDY    71  64  78 E7        30.04S
ALMA           CLOUDY    64  64  97 NE8       30.07R FOG
ANN ARBOR      CLOUDY    71  63  75 NE7       30.04R
BAD AXE        FOG       63  63 100 NE6       30.08R VSB 1/4
CARO           FOG       63  63 100 CALM      30.07R VSB 1/2
DETROIT CITY   FOG       66  63  90 N6        30.05S VSB 3/4
DETROIT        PTSUNNY   73  61  64 NE7       30.05R
FLINT          CLOUDY    65  61  87 NE5       30.06S FOG
GROSSE ILE     CLOUDY    68  64  88 NE8       30.03R FOG
HILLSDALE      PTSUNNY   71  68  92 E5        30.04S
HOWELL         SUNNY     67  64  89 NE3       30.05S

CITY           SKY/WX    TMP DP  RH WIND       PRES   REMARKS
JACKSON        CLOUDY    70  65  84 NE5       30.04R
LAMBERTVILLE   PTSUNNY   70  63  78 NE3       30.03S
LANSING        SUNNY     68  62  81 NE6       30.06R
LAPEER         FOG       62  61  96 CALM      30.07R VSB 1/2
MASON          MOSUNNY   67  64  88 NE6       30.05R
MONROE         PTSUNNY   70  64  83 NE3       30.02R
MT. CLEMENS    CLOUDY    65  65  99 N6        30.04S FOG
PONTIAC        MOSUNNY   65  62  90 E7        30.05S
PORT HOPE        N/A     62  60  93 NE8       30.07R
PORT HURON     FOG       66  66 100 N3        30.05S VSB 1
TRI CITIES     PTSUNNY   69  64  84 E9        30.07R
TROY           CLOUDY    64  63  94 N5        30.06F FOG
SAGINAW HB     CLOUDY    64  64 100 E6        30.06S FOG
$$
MIZ043>046-050>051-056>058-064>065-071>073-077>080-231400-
SOUTHWEST LOWER MICHIGAN

CITY           SKY/WX    TMP DP  RH WIND       PRES   REMARKS
BATTLE CREEK   SUNNY     73  67  81 E7        30.03S
BENTON HARBOR  SUNNY     74  72  93 SE8       29.99R FOG
BIG RAPIDS     CLOUDY    65  65 100 NE5       30.07R FOG
COLDWATER      SUNNY     73  69  90 SE6       30.02S FOG
FREMONT        FAIR      68  64  87 E9        30.03S
HOLLAND        PTSUNNY   72  68  87 E7        30.02R
GRAND RAPIDS   MOSUNNY   69  67  93 E12       30.04R
IONIA          FAIR      66  62  88 E7        30.05R
KALAMAZOO      PTSUNNY   73  69  87 E5        30.03R FOG
LUDINGTON      SUNNY     69  66  88 E9        30.03S
MARSHALL       CLOUDY    70  66  88 E5        30.03S
MOUNT PLEASANT CLOUDY    64  63  97 E6        30.07R FOG
MUSKEGON       MOSUNNY   71  65  81 E10       30.02R
SOUTH HAVEN    FOG       71  71 100 E6        30.00R VSB 1
$$
MIZ016>042-231400-
NORTHERN LOWER MICHIGAN

CITY           SKY/WX    TMP DP  RH WIND       PRES   REMARKS
ALPENA         FOG       62  62 100 CALM      30.10S VSB 1/4
BEAVER ISLAND  CLOUDY    71  65  82 E9        30.07S
BELLAIRE       SUNNY     70  63  77 CALM      30.06S
CADILLAC       SUNNY     67  63  88 E6        30.08R
CHARLEVOIX     PTSUNNY   70  65  84 E8        30.10S
FRANKFORT      SUNNY     72  62  70 SE3       30.04S
GAYLORD        MOSUNNY   65  62  90 NE6       30.10S
GRAYLING       PTSUNNY   64  64 100 E6        30.10R
HARBOR SPRINGS MOSUNNY   67  64  90 E3        30.09R FOG
HOUGHTON LAKE  SUNNY     67  63  87 NE7       30.09S
MANISTEE       SUNNY     66  63  88 E8        30.05S
OSCODA         CLOUDY    63  63 100 N6        30.08S FOG
PELLSTON       PTSUNNY   65  63  93 SW3       30.10R
ROGERS CITY    CLOUDY    64  64 100 CALM      30.12R FOG
TRAVERSE CITY  MOSUNNY   71  62  73 CALM      30.05R
$$
MIZ007>008-015-231400-
EASTERN UPPER MICHIGAN

CITY           SKY/WX    TMP DP  RH WIND       PRES   REMARKS
KINROSS        CLOUDY    64  63  94 E3        30.11R
MACKINAC ISLAN FOG       62  62 100 E3        30.09S VSB<1/4
NEWBERRY       CLOUDY    65  62  91 SE5       30.09S
S. S. MARIE    SUNNY     67  63  87 VRB5      30.10S
MUNISING         N/A     70  64  81 CALM      30.05S
$$
MIZ004>006-011>014-085-231400-
CENTRAL UPPER MICHIGAN

CITY           SKY/WX    TMP DP  RH WIND       PRES   REMARKS
MANISTIQUE     CLOUDY    66  64  93 E6        30.06S
ESCANABA       CLOUDY    66  64  94 E9        30.04S
MENOMINEE      CLOUDY    70  66  88 SE6       30.02R
SAWYER-GWINN   FOG       66  64  94 SE3       30.06S VSB 1/4
$$
MIZ001>003-009>011-084-231400-
WESTERN UPPER MICHIGAN

CITY           SKY/WX    TMP DP  RH WIND       PRES   REMARKS
IRON MOUNTAIN  CLOUDY    68  66  93 CALM      30.03F FOG
HOUGHTON       FOG       63  61  93 E7        30.06R VSB<1/4
COPPER HARBOR    N/A     57  55  93 E3        30.07S
$$

ABBREVIATIONS USED IN REMARKS
   TC - TEMPERATURE IN CELSIUS
  WCI - WIND CHILL INDEX
   HX - HEAT INDEX
  VSB - VISIBILITY




USA.gov is the U.S. government's official web portal to all federal, state and local government web resources and services.